Date String (YYYY-MM-DD hh:mm:ss) UTC,Instrument flags,Ambient pressure (hPa),Sample flow (lpm),Bypass flow (lpm),Sample temperature (°C),Ambient temperature (°C),ASC tube jacket temperature (°C),LED temperature (°C),Box temperature (°C),Sample RH (%),Span deviation,Mass concentration (μg/m³),Mass concentration (μg/m³),Mass concentration (μg/m³)
DateTimeUTC,F1_M11,P_M11,Q1_M11,Q2_M11,T1_M11,T2_M11,T3_M11,T4_M11,T5_M11,U1_M11,ZSPAN_M11,X0_M11,X2_M11,X1_M11
2022-09-18 10:00:00,,0823.9,5.00,0.00,30.9,29.3,00.0,39.6,32.6,19.2,0000.0,0010.93,0005.14,0004.63
2022-09-18 10:01:00,,0823.9,5.01,0.00,30.9,29.4,00.0,39.7,32.6,19.1,0000.0,0009.64,0005.16,0004.63
2022-09-18 10:02:00,,0824.0,4.99,0.00,30.9,29.4,00.0,39.6,32.6,19.1,0000.0,0009.51,0005.12,0004.63
2022-09-18 10:03:00,,0823.9,5.00,0.00,30.9,29.3,00.0,39.7,32.6,19.0,0000.0,0009.53,0005.10,0004.62
2022-09-18 10:04:00,,0823.9,5.00,0.00,30.9,29.3,00.0,39.7,32.6,18.9,0000.0,0009.56,0005.11,0004.61
2022-09-18 10:05:00,,0823.9,4.99,0.00,30.9,29.3,00.0,39.7,32.6,19.0,0000.0,0009.63,0005.13,0004.61
2022-09-18 10:06:00,,0824.0,5.00,0.00,30.9,29.4,00.0,39.7,32.6,18.9,0000.0,0009.48,0005.07,0004.59
2022-09-18 10:07:00,,0823.9,5.00,0.00,30.9,29.3,00.0,39.7,32.6,19.0,0000.0,0009.57,0005.03,0004.56
2022-09-18 10:08:00,,0823.9,5.00,0.00,30.9,29.3,00.0,39.7,32.6,19.0,0000.0,0010.66,0004.99,0004.54
2022-09-18 10:09:00,,0823.9,4.99,0.00,30.9,29.3,00.0,39.7,32.6,19.0,0000.0,0011.04,0005.01,0004.55
2022-09-18 10:10:00,,0823.9,5.01,0.00,30.9,29.3,00.0,39.7,32.6,19.1,0000.0,0011.51,0005.00,0004.54
2022-09-18 10:11:00,,0823.9,5.00,0.00,30.9,29.3,00.0,39.7,32.6,19.1,0000.0,0011.56,0004.96,0004.52
2022-09-18 10:12:00,,0823.9,4.99,0.00,30.9,29.3,00.0,39.7,32.6,19.1,0000.0,0011.67,0004.96,0004.51
2022-09-18 10:13:00,,0823.9,5.00,0.00,30.9,29.3,00.0,39.7,32.6,19.1,0000.0,0011.39,0005.00,0004.51
2022-09-18 10:14:00,,0823.9,5.00,0.00,30.9,29.3,00.0,39.7,32.6,19.0,0000.0,0011.46,0005.02,0004.52
2022-09-18 10:15:00,,0823.9,5.00,0.00,30.9,29.3,00.0,39.7,32.6,19.1,0000.0,0011.54,0005.01,0004.52
2022-09-18 10:16:00,,0824.0,5.01,0.00,30.9,29.3,00.0,39.7,32.6,19.0,0000.0,0011.44,0005.01,0004.53
2022-09-18 10:17:00,,0823.9,5.01,0.00,30.9,29.3,00.0,39.7,32.6,19.0,0000.0,0011.45,0005.04,0004.56
2022-09-18 10:18:00,,0824.0,4.99,0.00,30.9,29.3,00.0,39.7,32.6,19.0,0000.0,0011.67,0005.11,0004.59
2022-09-18 10:19:00,,0823.9,5.00,0.00,30.9,29.3,00.0,39.7,32.6,19.1,0000.0,0010.64,0005.16,0004.61
2022-09-18 10:20:00,,0824.0,5.00,0.00,30.9,29.3,00.0,39.7,32.6,19.1,0000.0,0009.91,0005.20,0004.63
2022-09-18 10:21:00,,0824.1,4.99,0.00,30.9,29.3,00.0,39.7,32.6,18.9,0000.0,0009.24,0005.22,0004.65
2022-09-18 10:22:00,,0824.1,5.00,0.00,30.9,29.3,00.0,39.7,32.6,18.7,0000.0,0009.12,0005.19,0004.64
2022-09-18 10:23:00,,0824.1,5.01,0.00,30.9,29.3,00.0,39.7,32.6,18.5,0000.0,0009.02,0005.16,0004.63
2022-09-18 10:24:00,,0824.0,5.00,0.00,30.9,29.3,00.0,39.7,32.6,18.5,0000.0,0009.12,0005.16,0004.63
2022-09-18 10:25:00,,0824.1,5.00,0.00,30.9,29.3,00.0,39.7,32.6,18.6,0000.0,0009.06,0005.15,0004.61
2022-09-18 10:26:00,,0824.0,5.02,0.00,30.9,29.3,00.0,39.7,32.6,18.6,0000.0,0008.89,0005.12,0004.59
2022-09-18 10:27:00,,0824.0,4.99,0.00,30.9,29.3,00.0,39.7,32.6,18.6,0000.0,0008.87,0005.09,0004.57
2022-09-18 10:28:00,,0824.1,5.01,0.00,30.9,29.3,00.0,39.7,32.6,18.6,0000.0,0008.81,0005.03,0004.53
2022-09-18 10:29:00,,0824.1,5.01,0.00,30.9,29.4,00.0,39.7,32.6,18.5,0000.0,0008.58,0004.96,0004.51
2022-09-18 10:30:00,,0824.1,4.99,0.00,30.9,29.4,00.0,39.7,32.6,18.9,0000.0,0008.47,0004.94,0004.50
2022-09-18 10:31:00,,0824.1,5.00,0.00,30.9,29.3,00.0,39.7,32.6,18.8,0000.0,0008.40,0004.92,0004.50
2022-09-18 10:32:00,,0824.1,5.01,0.00,30.9,29.3,00.0,39.7,32.6,18.5,0000.0,0008.24,0004.87,0004.46
2022-09-18 10:33:00,,0824.1,4.99,0.00,30.9,29.3,00.0,39.7,32.6,18.5,0000.0,0008.13,0004.85,0004.44
2022-09-18 10:34:00,,0824.2,5.01,0.00,30.9,29.3,00.0,39.7,32.6,18.5,0000.0,0008.04,0004.85,0004.44
2022-09-18 10:35:00,,0824.1,5.00,0.00,30.9,29.3,00.0,39.7,32.6,18.7,0000.0,0007.90,0004.84,0004.44
2022-09-18 10:36:00,,0824.1,4.99,0.00,30.9,29.3,00.0,39.7,32.6,18.8,0000.0,0008.34,0004.84,0004.45
2022-09-18 10:37:00,,0824.2,5.01,0.00,30.9,29.3,00.0,39.7,32.6,18.8,0000.0,0008.59,0004.87,0004.47
2022-09-18 10:38:00,,0824.2,5.01,0.00,30.9,29.3,00.0,39.7,32.6,18.8,0000.0,0009.21,0004.91,0004.48
2022-09-18 10:39:00,,0824.2,4.99,0.00,30.9,29.3,00.0,39.7,32.6,18.9,0000.0,0009.47,0004.95,0004.50
2022-09-18 10:40:00,,0824.3,5.01,0.00,30.9,29.3,00.0,39.7,32.6,18.8,0000.0,0009.61,0004.99,0004.51
2022-09-18 10:41:00,,0824.3,5.00,0.00,30.9,29.3,00.0,39.7,32.6,18.7,0000.0,0009.66,0005.01,0004.50
2022-09-18 10:42:00,,0824.2,4.99,0.00,30.9,29.3,00.0,39.7,32.6,18.6,0000.0,0009.64,0004.97,0004.48
2022-09-18 10:43:00,,0824.2,5.00,0.00,30.9,29.3,00.0,39.7,32.6,18.8,0000.0,0009.60,0004.97,0004.50
2022-09-18 10:44:00,,0824.2,5.00,0.00,30.9,29.3,00.0,39.7,32.6,18.9,0000.0,0009.62,0004.98,0004.51
2022-09-18 10:45:00,,0824.3,5.00,0.00,30.9,29.3,00.0,39.7,32.6,18.9,0000.0,0009.73,0005.02,0004.53
2022-09-18 10:46:00,,0824.3,5.00,0.00,30.9,29.3,00.0,39.7,32.6,18.9,0001.3,0009.77,0005.04,0004.55
2022-09-18 10:47:00,,0824.3,4.99,0.00,30.9,29.3,00.0,39.7,32.6,18.9,0000.1,0009.28,0005.03,0004.55
2022-09-18 10:48:00,,0824.3,5.01,0.00,30.9,29.3,00.0,39.7,32.6,18.9,0000.0,0009.52,0005.02,0004.55
2022-09-18 10:49:00,,0824.3,4.99,0.00,30.9,29.3,00.0,39.7,32.6,18.4,0000.0,0009.05,0005.03,0004.52
2022-09-18 10:50:00,,0824.4,5.01,0.00,30.9,29.3,00.0,39.7,32.6,18.4,0000.0,0009.21,0004.97,0004.47
2022-09-18 10:51:00,,0824.4,5.00,0.00,30.9,29.3,00.0,39.7,32.6,18.5,0000.0,0010.11,0004.93,0004.43
2022-09-18 10:52:00,,0824.4,4.99,0.00,30.8,29.3,00.0,39.7,32.6,18.4,0000.0,0010.27,0004.86,0004.40
2022-09-18 10:53:00,,0824.4,5.01,0.00,30.9,29.3,00.0,39.7,32.6,18.5,0000.0,0010.47,0004.86,0004.38
2022-09-18 10:54:00,,0824.3,5.00,0.00,30.8,29.3,00.0,39.7,32.6,18.6,0000.0,0010.52,0004.87,0004.36
2022-09-18 10:55:00,,0824.3,4.99,0.00,30.8,29.3,00.0,39.7,32.6,18.7,0000.0,0010.52,0004.86,0004.35
2022-09-18 10:56:00,,0824.4,5.01,0.00,30.8,29.3,00.0,39.7,32.6,18.8,0000.0,0010.54,0004.84,0004.33
2022-09-18 10:57:00,,0824.4,5.00,0.00,30.8,29.3,00.0,39.7,32.6,18.9,0000.0,0010.57,0004.84,0004.32
2022-09-18 10:58:00,,0824.3,4.99,0.00,30.8,29.3,00.0,39.7,32.6,19.0,0000.0,0010.41,0004.86,0004.32
2022-09-18 10:59:00,,0824.4,5.00,0.00,30.8,29.3,00.0,39.7,32.6,18.9,0000.0,0010.00,0004.83,0004.32
